7 * 24
多渠道服务支持
INTELSAT 4(又称PAS 4)是由国际通信卫星组织(ITSO)运营的一颗商业通信卫星,于1995年8月3日发射升空。该卫星定位于地球静止轨道,主要提供跨区域的通信传输、电视广播转发服务,支持北美、拉美等区域的通信网络连接,为当时的跨洋商业通信与媒体广播基础设施提供支撑,是90年代国际商业卫星通信布局中重要组成部分。
(ITSO)
| 数据来源 | 国际轨道数据 | AOE轨道数据 |
| 星历时间 | 2026-06-20T16:35:36+0800 1天前 查看轨道信息 | 2026-06-20T11:00:00+0800 1天前 查看轨道信息 |
| 半长轴 | 43070.121km | 43070.062km |
| 偏心率 | 0.0026174 | 0.002604 |
| 轨道倾角 | 11.973° | 11.973° |
| 近地点辐角 | 235.106° | 235.446° |
| 升交点赤经 | 40.391° | 40.393° |
| 平近点角 | 21.323° | 299.491° |
| 近地点 | 36579.252km | 36579.77km |
| 远地点 | 36804.716km | 36804.08km |
| 周期 | 1482.600分钟 | 1482.596分钟 |
| 每日圈数 | 0.971267 | 0.971269 |